contact:dominique.lefevre@mio.osupytheas.fr, maurice.libes@osupytheas.fr
Project:EMSO Ligure-ouest http://www.emso-fr.org/EMSO-France
Sensor Aquadopp, line 13 Serial AQD14315 
DOI : "https://doi.org/10.17882/74513; https://doi.org/10.17882/83244" 
Title:EMSO Ligure Ouest : Data ligne ALBATROSS capteur AQUADOPP - deploiement 2021
Id,Date,Profondeur,Latitude,Longitude,X_East,Y_North,Z_Up,Amplitude_X,Amplitude_Y,Amplitude_Z,Batterie,SoundSpeed,Heading,Pitch,Roll,Pressure,Temperature,Speed,Direction
, , m, degrees North, degrees East, m.s-1, m.s-1,m.s-1, 1, 1, 1, Volt, m.s-1, degree, degree, degree, dbar, degree_C, m.s-1, degree
11,2022-01-31T22:00:00,2200.0,42.79,6.0312,0.002,-0.079,0.009,69.0,72.0,73.0,12.4,1504.3,206.8,-0.3,0.1,2192.73,13.17,0.079,178.6
11,2022-01-31T22:30:00,2200.0,42.79,6.0312,0.008,-0.082,-0.01,68.0,71.0,73.0,12.4,1504.3,201.4,-1.0,0.5,2192.696,13.17,0.082,174.4
11,2022-01-31T23:00:00,2200.0,42.79,6.0312,0.001,-0.081,0.013,68.0,72.0,72.0,12.4,1504.3,204.3,-1.5,0.7,2192.682,13.17,0.081,179.3
11,2022-01-31T23:30:00,2200.0,42.79,6.0312,-0.01,-0.079,-0.003,69.0,72.0,75.0,12.4,1504.3,215.7,-0.5,0.2,2192.645,13.17,0.079,187.2
11,2022-02-01T00:00:00,2200.0,42.79,6.0312,-0.008,-0.078,0.002,69.0,72.0,74.0,12.4,1504.3,198.6,-1.2,0.7,2192.71,13.17,0.078,185.9
11,2022-02-01T00:30:00,2200.0,42.79,6.0312,0.003,-0.077,0.004,70.0,73.0,74.0,12.4,1504.3,203.5,-0.6,0.2,2192.608,13.18,0.077,177.8
11,2022-02-01T01:00:00,2200.0,42.79,6.0312,-0.012,-0.088,0.009,70.0,74.0,74.0,12.4,1504.3,199.8,-1.3,0.4,2192.586,13.18,0.088,187.8
11,2022-02-01T01:30:00,2200.0,42.79,6.0312,-0.007,-0.079,-0.002,71.0,73.0,75.0,12.4,1504.3,203.6,-0.6,0.5,2192.618,13.18,0.079,185.1
11,2022-02-01T02:00:00,2200.0,42.79,6.0312,0.0,-0.067,-0.02,70.0,73.0,74.0,12.4,1504.3,210.1,-0.4,0.1,2192.608,13.18,0.066,180.0
11,2022-02-01T02:30:00,2200.0,42.79,6.0312,-0.013,-0.071,0.009,71.0,75.0,76.0,12.4,1504.3,220.4,-0.3,0.2,2192.686,13.18,0.072,190.4
11,2022-02-01T03:00:00,2200.0,42.79,6.0312,0.004,-0.07,-0.005,66.0,71.0,69.0,12.4,1504.3,213.5,-0.5,0.1,2192.617,13.18,0.07,176.7
11,2022-02-01T03:30:00,2200.0,42.79,6.0312,0.0,-0.061,-0.009,71.0,73.0,74.0,12.4,1504.3,206.0,-0.8,0.6,2192.698,13.18,0.06,180.0
11,2022-02-01T04:00:00,2200.0,42.79,6.0312,-0.008,-0.074,-0.003,71.0,76.0,74.0,12.4,1504.3,226.0,-0.4,0.0,2192.727,13.18,0.074,186.2
11,2022-02-01T04:30:00,2200.0,42.79,6.0312,-0.014,-0.075,-0.001,71.0,73.0,76.0,12.4,1504.3,222.0,-0.4,0.0,2192.776,13.18,0.076,190.6
11,2022-02-01T05:00:00,2200.0,42.79,6.0312,-0.006,-0.079,-0.012,71.0,74.0,75.0,12.4,1504.3,202.5,-1.1,0.7,2192.809,13.18,0.079,184.3
11,2022-02-01T05:30:00,2200.0,42.79,6.0312,-0.006,-0.073,-0.009,71.0,73.0,76.0,12.4,1504.3,207.0,-1.1,0.2,2192.827,13.18,0.073,184.7
11,2022-02-01T06:00:00,2200.0,42.79,6.0312,-0.023,-0.066,-0.004,72.0,74.0,77.0,12.4,1504.3,215.7,-0.8,0.4,2192.911,13.18,0.069,199.2
11,2022-02-01T06:30:00,2200.0,42.79,6.0312,-0.025,-0.071,0.011,71.0,75.0,75.0,12.4,1504.3,221.3,-1.1,0.4,2192.884,13.18,0.075,199.4
11,2022-02-01T07:00:00,2200.0,42.79,6.0312,-0.003,-0.076,-0.004,71.0,74.0,75.0,12.4,1504.3,202.4,-0.3,0.0,2192.914,13.18,0.076,182.3
11,2022-02-01T07:30:00,2200.0,42.79,6.0312,-0.023,-0.076,0.007,70.0,74.0,76.0,12.4,1504.3,206.0,-1.0,0.4,2192.901,13.18,0.079,196.8
11,2022-02-01T08:00:00,2200.0,42.79,6.0312,-0.008,-0.074,-0.01,71.0,75.0,75.0,12.4,1504.3,199.9,-0.5,0.4,2192.971,13.18,0.074,186.2
11,2022-02-01T08:30:00,2200.0,42.79,6.0312,0.001,-0.066,-0.008,72.0,74.0,76.0,12.4,1504.3,187.1,-0.9,0.6,2192.925,13.18,0.066,179.1
11,2022-02-01T09:00:00,2200.0,42.79,6.0312,-0.022,-0.055,0.017,72.0,76.0,78.0,12.4,1504.3,203.4,-0.7,0.2,2192.892,13.18,0.059,201.8
11,2022-02-01T09:30:00,2200.0,42.79,6.0312,-0.017,-0.046,0.004,72.0,75.0,78.0,12.4,1504.3,199.1,-0.7,0.3,2192.907,13.17,0.049,200.3
11,2022-02-01T10:00:00,2200.0,42.79,6.0312,-0.014,-0.05,0.001,72.0,75.0,76.0,12.4,1504.3,197.1,-0.9,0.5,2192.858,13.18,0.051,195.6
11,2022-02-01T10:30:00,2200.0,42.79,6.0312,-0.02,-0.035,-0.005,72.0,75.0,77.0,12.4,1504.3,208.5,-0.6,0.2,2192.827,13.18,0.04,209.7
11,2022-02-01T11:00:00,2200.0,42.79,6.0312,-0.019,-0.037,-0.004,71.0,74.0,76.0,12.4,1504.3,208.8,-0.8,0.2,2192.815,13.18,0.041,207.2
11,2022-02-01T11:30:00,2200.0,42.79,6.0312,-0.017,-0.024,-0.005,70.0,76.0,78.0,12.4,1504.3,216.3,-0.8,0.1,2192.793,13.18,0.029,215.3
11,2022-02-01T12:00:00,2200.0,42.79,6.0312,-0.025,-0.02,0.015,72.0,76.0,76.0,12.4,1504.3,219.1,-0.7,0.0,2192.772,13.18,0.032,231.3
11,2022-02-01T12:30:00,2200.0,42.79,6.0312,-0.026,-0.024,0.0,71.0,76.0,77.0,12.4,1504.3,211.7,-0.8,0.0,2192.71,13.18,0.035,227.3
11,2022-02-01T13:00:00,2200.0,42.79,6.0312,-0.031,-0.022,-0.009,73.0,75.0,77.0,12.4,1504.3,210.2,-0.6,0.2,2192.729,13.17,0.038,234.6
11,2022-02-01T13:30:00,2200.0,42.79,6.0312,-0.033,-0.004,0.003,72.0,75.0,76.0,12.4,1504.3,213.9,-0.7,0.2,2192.698,13.18,0.033,263.1
11,2022-02-01T14:00:00,2200.0,42.79,6.0312,-0.044,0.011,0.01,72.0,75.0,77.0,12.4,1504.3,216.3,-0.7,0.0,2192.664,13.18,0.045,284.0
11,2022-02-01T14:30:00,2200.0,42.79,6.0312,-0.046,0.016,0.006,71.0,75.0,77.0,12.4,1504.3,215.1,-0.9,0.3,2192.642,13.17,0.048,289.2
11,2022-02-01T15:00:00,2200.0,42.79,6.0312,-0.042,0.006,-0.002,72.0,74.0,76.0,12.4,1504.3,218.6,-0.9,0.1,2192.659,13.18,0.042,278.1
11,2022-02-01T15:30:00,2200.0,42.79,6.0312,-0.05,0.025,-0.001,72.0,75.0,79.0,12.4,1504.3,221.3,-1.0,0.3,2192.739,13.18,0.055,296.6
11,2022-02-01T16:00:00,2200.0,42.79,6.0312,-0.058,0.008,-0.004,73.0,74.0,76.0,12.4,1504.3,223.0,-1.2,0.4,2192.74,13.18,0.058,277.8
11,2022-02-01T16:30:00,2200.0,42.79,6.0312,-0.049,0.018,0.025,71.0,76.0,77.0,12.4,1504.3,227.1,-0.8,0.3,2192.755,13.18,0.052,290.2
11,2022-02-01T17:00:00,2200.0,42.79,6.0312,-0.068,0.031,0.009,71.0,74.0,76.0,12.4,1504.3,236.7,-1.0,0.2,2192.765,13.18,0.074,294.5
11,2022-02-01T17:30:00,2200.0,42.79,6.0312,-0.061,0.023,-0.003,70.0,74.0,74.0,12.4,1504.3,240.3,-0.3,0.1,2192.853,13.18,0.065,290.7
11,2022-02-01T18:00:00,2200.0,42.79,6.0312,-0.074,0.016,0.007,72.0,74.0,74.0,12.4,1504.3,233.6,-1.0,0.4,2192.862,13.18,0.075,282.2
11,2022-02-01T18:30:00,2200.0,42.79,6.0312,-0.073,0.035,0.009,71.0,75.0,77.0,12.4,1504.3,242.7,-1.0,0.3,2192.853,13.17,0.08,295.6
11,2022-02-01T19:00:00,2200.0,42.79,6.0312,-0.071,0.025,0.008,73.0,74.0,76.0,12.4,1504.3,244.7,-0.4,0.4,2192.867,13.17,0.075,289.4
11,2022-02-01T19:30:00,2200.0,42.79,6.0312,-0.077,0.009,-0.008,72.0,73.0,76.0,12.4,1504.3,231.7,-0.6,0.4,2192.882,13.18,0.077,276.7
11,2022-02-01T20:00:00,2200.0,42.79,6.0312,-0.067,0.017,0.004,71.0,74.0,75.0,12.4,1504.3,248.1,-1.2,0.2,2192.859,13.18,0.069,284.2
11,2022-02-01T20:30:00,2200.0,42.79,6.0312,-0.088,0.001,0.009,71.0,74.0,75.0,12.4,1504.3,233.3,-0.7,0.5,2192.909,13.18,0.088,270.6
11,2022-02-01T21:00:00,2200.0,42.79,6.0312,-0.085,0.026,0.014,68.0,71.0,73.0,12.4,1504.3,247.0,-1.3,0.2,2192.839,13.18,0.088,287.0
